Regional Weather Roundup
Issued by NWS

Home | Current Version | Previous Version | Graphics & Text | Print | Product List | Glossary On
Versions: 1 2 3 4 5 6 7 8 9 10 11 12 13 14 15 16 17 18 19 20 21 22 23 24 25 26 27 28 29 30 31 32 33 34 35 36 37 38 39 40 41 42 43 44 45 46 47 48 49 50
000
ASUS44 KMEG 230110
RWRTN
TENNESSEE HOURLY STATE WEATHER ROUNDUP
NATIONAL WEATHER SERVICE MEMPHIS TN
800 PM CDT FRI MAY 22 2015

TNZ002-004-019-021-049-052-054-088>092-230200-
WEST TENNESSEE

CITY           SKY/WX    TMP DP  RH WIND       PRES   REMARKS
MEMPHIS INTL   CLOUDY    70  48  45 E9        30.22S
NWS MEMPHIS      N/A     66 N/A N/A MISG        N/A
JACKSON        MOCLDY    64  54  69 CALM      30.24R
DYERSBURG      CLOUDY    66  43  42 CALM      30.24S
PARIS          CLEAR     64  52  63 CALM      30.26R
LEXINGTON      CLEAR     61  54  77 CALM      30.23F
$$

TNZ008-025-027-028-033-062-065-066-230200-
NORTH MIDDLE TENNESSEE

CITY           SKY/WX    TMP DP  RH WIND       PRES   REMARKS
NASHVILLE      PTCLDY    69  44  40 NE3       30.27R
CLARKSVILLE    MOCLDY    66  49  54 E5        30.26S
SMYRNA         CLEAR     65  49  56 CALM      30.28R
COOKEVILLE     CLEAR     57  48  72 N3        30.28R
CROSSVILLE     CLEAR     63  43  48 N5        30.30R
$$

TNZ061-075-076-078-094-096-097-230200-
SOUTH MIDDLE TENNESSEE

CITY           SKY/WX    TMP DP  RH WIND       PRES   REMARKS
FAYETTEVILLE   CLEAR    N/A N/A N/A MISG      30.26R
TULLAHOMA      CLEAR     64  45  48 CALM      30.28R
WINCHESTER     CLEAR     64  48  55 N6        30.27R
MCMINNVILLE    CLEAR     63  46  55 CALM      30.28R
COLUMBIA       CLEAR     63  48  59 E3        30.25R
SHELBYVILLE    CLEAR     64  50  59 NE3       30.28R
$$

TNZ017-018-042-046-047-230200-
NORTHEAST TENNESSEE

CITY           SKY/WX    TMP DP  RH WIND       PRES   REMARKS
TRI CITIES     PTCLDY    60  45  57 N3        30.29R
ELIZABETHTON   CLEAR     54  46  76 CALM      30.30R
$$

TNZ012-013-036-069-073-074-230200-
CENTRAL EAST TENNESSEE

CITY           SKY/WX    TMP DP  RH WIND       PRES   REMARKS
KNOXVILLE      PTCLDY    66  41  40 NE5       30.26R
OAK RIDGE      CLEAR     66  43  43 CALM      30.29R
GATLINBURG     CLEAR     61  45  55 CALM      30.27R
MORRISTOWN     CLEAR     64  46  52 CALM      30.29R
$$

TNZ083-085-099-230200-
SOUTHEAST TENNESSEE

CITY           SKY/WX    TMP DP  RH WIND       PRES   REMARKS
CHATTANOOGA    MOCLDY    69  43  38 NE5       30.25R
$$

SKY/WX REPORTED AS FAIR MEANS FEW OR NO CLOUDS BELOW
12 THOUSAND FEET.




USA.gov is the U.S. government's official web portal to all federal, state and local government web resources and services.